Weather History for KHNZ - March, 2013

Change the Weather History Date:

Thursday, March 7, 2013

  Actual Average (KTDF) Record (KTDF)
Temperature  
Mean Temperature 41 °F -  
Max Temperature 47 °F 58 °F 84 °F (1974)
Min Temperature 35 °F 34 °F 18 °F (1960)
Degree Days  
Heating Degree Days 24    
Moisture  
Dew Point 27 °F    
Average Humidity 59    
Maximum Humidity 72    
Minimum Humidity 43    
Precipitation  
Precipitation 0.00 in - - ()
Sea Level Pressure  
Sea Level Pressure 30.12 in    
Wind  
Wind Speed 8 mph (NW)    
Max Wind Speed 14 mph    
Max Gust Speed 21 mph    
Visibility 10 miles    
Events      
Averages and records for this station are not official NWS values.
T = Trace of Precipitation, MM = Missing Value Source: NWS Daily Summary

Daily Weather History Graph

Daily Weather History Graph

Search for Another Location

Airport or City:

Trip Planner

Search our weather history database for the weather conditions in past years. The results will help you decide how hot, cold, wet, or windy it might be!

Date:

Astronomy

Mar. 07, 2013 Rise Set
Actual Time 6:36 AM EST 6:14 PM EST
Civil Twilight 6:10 AM EST 6:40 PM EST
Nautical Twilight 5:40 AM EST 7:10 PM EST
Astronomical Twilight 5:10 AM EST 7:40 PM EST
Moon 3:28 AM EST (3/7) 2:06 PM EST (3/7)
Length of Visible Light 12h 30m
Length of Day
11h 38m
Waning Crescent, 20% of the Moon is Illuminated
Mar 7
Waning Crescent
Mar 11
New
Mar 19
First Quarter
Mar 27
Full
Apr 3
Last Quarter

Hourly Weather History & Observations

Time (EST) Temp. Windchill Dew Point Humidity Pressure Visibility Wind Dir Wind Speed Gust Speed Precip Events Conditions
12:15 AM 37.4 °F 28.9 °F 28.4 °F 70% 30.00 in 10.0 mi NW 13.8 mph 20.7 mph N/A   Clear
12:35 AM 37.2 °F 30.0 °F 28.4 °F 70% 30.00 in 10.0 mi NW 10.4 mph 16.1 mph N/A   Clear
12:55 AM 36.5 °F 30.3 °F 28.4 °F 72% 30.01 in 10.0 mi NW 8.1 mph - N/A   Clear
1:15 AM 36.5 °F 29.7 °F 28.4 °F 72% 30.01 in 10.0 mi NW 9.2 mph - N/A   Clear
1:35 AM 36.7 °F 31.2 °F 28.4 °F 72% 30.02 in 10.0 mi NW 6.9 mph - N/A   Clear
1:55 AM 36.7 °F 29.9 °F 28.4 °F 72% 30.02 in 10.0 mi NW 9.2 mph - N/A   Clear
2:15 AM 36.9 °F 30.1 °F 28.4 °F 71% 30.02 in 10.0 mi NW 9.2 mph - N/A   Clear
2:35 AM 37.2 °F 32.6 °F 28.2 °F 70% 30.03 in 10.0 mi WNW 5.8 mph - N/A   Clear
2:55 AM 37.0 °F 31.0 °F 28.2 °F 70% 30.03 in 10.0 mi WNW 8.1 mph - N/A   Clear
3:15 AM 36.9 °F 31.4 °F 28.2 °F 71% 30.03 in 10.0 mi WNW 6.9 mph - N/A   Clear
3:35 AM 36.5 °F 31.0 °F 28.2 °F 72% 30.04 in 10.0 mi NW 6.9 mph - N/A   Clear
3:55 AM 36.5 °F 31.8 °F 28.0 °F 71% 30.04 in 10.0 mi NW 5.8 mph - N/A   Clear
4:15 AM 36.5 °F 30.3 °F 28.0 °F 71% 30.04 in 10.0 mi NW 8.1 mph - N/A   Clear
4:35 AM 36.7 °F 32.0 °F 27.9 °F 70% 30.04 in 10.0 mi NW 5.8 mph - N/A   Clear
4:55 AM 36.5 °F 30.3 °F 27.9 °F 71% 30.05 in 10.0 mi NW 8.1 mph - N/A   Clear
5:15 AM 36.1 °F 29.9 °F 27.5 °F 71% 30.07 in 10.0 mi WNW 8.1 mph - N/A   Clear
5:35 AM 35.8 °F 30.9 °F 27.5 °F 72% 30.07 in 10.0 mi NW 5.8 mph - N/A   Clear
5:55 AM 35.8 °F 30.1 °F 27.5 °F 72% 30.07 in 10.0 mi WNW 6.9 mph - N/A   Clear
6:15 AM 35.8 °F 30.9 °F 27.5 °F 72% 30.07 in 10.0 mi NW 5.8 mph - N/A   Clear
6:35 AM 35.6 °F 30.7 °F 27.3 °F 72% 30.08 in 10.0 mi NW 5.8 mph - N/A   Clear
6:55 AM 35.6 °F 29.9 °F 27.5 °F 72% 30.09 in 10.0 mi NW 6.9 mph - N/A   Clear
7:15 AM 35.8 °F 30.1 °F 27.5 °F 72% 30.10 in 10.0 mi WNW 6.9 mph - N/A   Clear
7:35 AM 36.9 °F 32.2 °F 27.5 °F 69% 30.11 in 10.0 mi NW 5.8 mph - N/A   Clear
7:55 AM 38.1 °F 33.7 °F 27.7 °F 66% 30.12 in 10.0 mi WNW 5.8 mph - N/A   Clear
8:15 AM 39.7 °F 35.6 °F 28.9 °F 65% 30.13 in 10.0 mi WNW 5.8 mph - N/A   Clear
8:35 AM 41.0 °F 35.8 °F 28.6 °F 61% 30.14 in 10.0 mi WNW 8.1 mph - N/A   Clear
8:55 AM 42.3 °F 37.3 °F 28.8 °F 59% 30.15 in 10.0 mi NW 8.1 mph 16.1 mph N/A   Clear
9:15 AM 43.2 °F 37.4 °F 28.8 °F 57% 30.15 in 10.0 mi NW 10.4 mph 16.1 mph N/A   Scattered Clouds
9:35 AM 43.2 °F 37.0 °F 28.6 °F 56% 30.15 in 10.0 mi NW 11.5 mph 18.4 mph N/A   Mostly Cloudy
9:55 AM 44.6 °F 38.8 °F 28.6 °F 53% 30.16 in 10.0 mi NNW 11.5 mph 18.4 mph N/A   Mostly Cloudy
10:15 AM 44.8 °F 39.4 °F 28.8 °F 53% 30.15 in 10.0 mi NNW 10.4 mph 18.4 mph N/A   Overcast
10:35 AM 45.7 °F 39.8 °F 27.9 °F 50% 30.15 in 10.0 mi NW 12.7 mph 19.6 mph N/A   Overcast
10:55 AM 45.1 °F 39.1 °F 27.1 °F 49% 30.15 in 10.0 mi North 12.7 mph 18.4 mph N/A   Overcast
11:15 AM 44.8 °F 41.0 °F 27.3 °F 50% 30.14 in 10.0 mi NNW 6.9 mph - N/A   Overcast
11:35 AM 45.0 °F 39.7 °F 27.9 °F 51% 30.14 in 10.0 mi NNW 10.4 mph - N/A   Overcast
11:55 AM 45.0 °F 39.7 °F 27.3 °F 50% 30.14 in 10.0 mi NW 10.4 mph 17.3 mph N/A   Overcast
12:15 PM 45.3 °F 40.1 °F 27.9 °F 51% 30.14 in 10.0 mi WNW 10.4 mph - N/A   Overcast
12:35 PM 45.7 °F 42.0 °F 27.9 °F 50% 30.14 in 10.0 mi WNW 6.9 mph - N/A   Overcast
12:55 PM 46.0 °F 43.9 °F 27.9 °F 49% 30.12 in 10.0 mi WNW 4.6 mph - N/A   Overcast
1:15 PM 45.5 °F 40.3 °F 26.8 °F 48% 30.12 in 10.0 mi WNW 10.4 mph - N/A   Overcast
1:35 PM 46.4 °F 41.9 °F 27.7 °F 48% 30.11 in 10.0 mi NNW 9.2 mph 16.1 mph N/A   Overcast
1:55 PM 46.9 °F - 27.9 °F 48% 30.11 in 10.0 mi WNW 9.2 mph - N/A   Overcast
2:15 PM 46.8 °F - 28.0 °F 48% 30.11 in 10.0 mi NNW 9.2 mph 18.4 mph N/A   Overcast
2:35 PM 47.3 °F - 27.9 °F 47% 30.11 in 10.0 mi NNW 8.1 mph 16.1 mph N/A   Overcast
2:55 PM 47.1 °F - 27.5 °F 47% 30.11 in 10.0 mi NW 8.1 mph 20.7 mph N/A   Overcast
3:15 PM 46.8 °F - 27.0 °F 46% 30.11 in 10.0 mi NNW 10.4 mph 17.3 mph N/A   Overcast
3:35 PM 46.4 °F 42.4 °F 26.6 °F 46% 30.11 in 10.0 mi NW 8.1 mph - N/A   Overcast
3:55 PM 46.6 °F - 25.9 °F 44% 30.12 in 10.0 mi NNW 10.4 mph 17.3 mph N/A   Overcast
4:15 PM 46.8 °F - 26.2 °F 45% 30.12 in 10.0 mi NNW 9.2 mph - N/A   Overcast
4:35 PM 46.6 °F - 25.5 °F 44% 30.12 in 10.0 mi NNW 8.1 mph 16.1 mph N/A   Overcast
4:55 PM 46.9 °F - 25.3 °F 43% 30.12 in 10.0 mi NNW 10.4 mph 17.3 mph N/A   Overcast
5:15 PM 46.4 °F 41.9 °F 25.2 °F 43% 30.13 in 10.0 mi NW 9.2 mph - N/A   Overcast
5:35 PM 46.4 °F 42.4 °F 25.0 °F 43% 30.14 in 10.0 mi NW 8.1 mph - N/A   Overcast
5:55 PM 45.7 °F 42.0 °F 25.2 °F 45% 30.15 in 10.0 mi NW 6.9 mph - N/A   Overcast
6:15 PM 45.3 °F 41.6 °F 25.3 °F 46% 30.16 in 10.0 mi NW 6.9 mph - N/A   Overcast
6:35 PM 44.8 °F 41.6 °F 25.3 °F 47% 30.16 in 10.0 mi NW 5.8 mph - N/A   Overcast
6:55 PM 43.3 °F 40.7 °F 25.3 °F 49% 30.17 in 10.0 mi NW 4.6 mph - N/A   Mostly Cloudy
8:35 PM 40.1 °F - 25.7 °F 56% 30.20 in 10.0 mi Calm Calm - N/A   Clear
8:55 PM 38.3 °F - 26.2 °F 62% 30.21 in 10.0 mi Calm Calm - N/A   Clear
9:15 PM 37.2 °F 34.7 °F 25.9 °F 64% 30.21 in 10.0 mi West 3.5 mph - N/A   Clear
9:35 PM 36.1 °F 33.5 °F 26.2 °F 67% 30.21 in 10.0 mi WNW 3.5 mph - N/A   Clear
9:55 PM 35.8 °F 31.9 °F 25.7 °F 67% 30.22 in 10.0 mi West 4.6 mph - N/A   Clear
10:15 PM 36.5 °F 33.9 °F 24.8 °F 63% 30.21 in 10.0 mi West 3.5 mph - N/A   Clear
10:35 PM 36.0 °F 32.1 °F 24.4 °F 63% 30.22 in 10.0 mi WNW 4.6 mph - N/A   Clear
10:55 PM 36.1 °F 31.4 °F 24.3 °F 62% 30.21 in 10.0 mi WNW 5.8 mph - N/A   Clear
11:15 PM 35.8 °F 30.9 °F 23.9 °F 62% 30.21 in 10.0 mi West 5.8 mph - N/A   Clear
11:35 PM 35.4 °F 32.6 °F 23.7 °F 62% 30.21 in 10.0 mi WNW 3.5 mph - N/A   Clear
11:55 PM 35.6 °F 30.7 °F 23.4 °F 61% 30.21 in 10.0 mi WNW 5.8 mph - N/A   Clear